• In Österreich
  • Länderverzeichnis
  • Für 7 Tage
  • Wassertemperatur
  • Satellitenkarten
  • Wetterkarte
  • News
  • Widgets
  • user-avatar
    Anmelden

    Stündliche Wetter Przasnysz

    Heute, 23 Februar, Freitag

    Zeit Temperatur Niederschläge Wind Luftdruck Luftfeuchtigkeit
    00:00 -8°C° 0 mm 3 m/S 758 mmHg 65%
    01:00 -7°C° 0 mm 2 m/S 758 mmHg 65%
    02:00 -8°C° 0 mm 2 m/S 758 mmHg 67%
    03:00 -8°C° 0 mm 2 m/S 758 mmHg 68%
    04:00 -8°C° 0 mm 2 m/S 758 mmHg 70%
    05:00 -8°C° 0 mm 2 m/S 758 mmHg 72%
    06:00 -8°C° 0 mm 2 m/S 758 mmHg 74%
    07:00 -9°C° 0 mm 2 m/S 758 mmHg 76%
    08:00 -8°C° 0 mm 2 m/S 758 mmHg 71%
    09:00 -8°C° 0 mm 2 m/S 758 mmHg 66%
    10:00 -7°C° 0 mm 2 m/S 758 mmHg 62%
    11:00 -6°C° 0 mm 2 m/S 758 mmHg 56%
    12:00 -6°C° 0 mm 2 m/S 758 mmHg 51%
    13:00 -5°C° 0 mm 2 m/S 758 mmHg 46%
    14:00 -5°C° 0 mm 2 m/S 758 mmHg 44%
    15:00 -5°C° 0 mm 2 m/S 757 mmHg 42%
    16:00 -6°C° 0 mm 3 m/S 757 mmHg 40%
    17:00 -5°C° 0 mm 2 m/S 757 mmHg 42%
    18:00 -6°C° 0 mm 2 m/S 757 mmHg 43%
    19:00 -4°C° 0 mm 1 m/S 757 mmHg 44%
    20:00 -4°C° 0 mm 1 m/S 756 mmHg 45%
    21:00 -4°C° 0 mm 1 m/S 756 mmHg 47%
    22:00 -4°C° 0 mm 1 m/S 756 mmHg 48%
    23:00 -6°C° 0,1 mm 2 m/S 755 mmHg 54%

    Morgen, 24 Februar, Samstag

    Zeit Temperatur Niederschläge Wind Luftdruck Luftfeuchtigkeit
    00:00 -7°C° 0,1 mm 3 m/S 755 mmHg 61%
    01:00 -8°C° 0,1 mm 4 m/S 755 mmHg 67%
    02:00 -8°C° 0,1 mm 4 m/S 755 mmHg 70%
    03:00 -8°C° 0,1 mm 4 m/S 755 mmHg 73%
    04:00 -9°C° 0,1 mm 4 m/S 755 mmHg 76%
    05:00 -10°C° 0,1 mm 5 m/S 756 mmHg 74%
    06:00 -11°C° 0,1 mm 6 m/S 757 mmHg 72%
    07:00 -12°C° 0,1 mm 7 m/S 757 mmHg 71%
    08:00 -12°C° 0 mm 7 m/S 758 mmHg 64%
    09:00 -11°C° 0 mm 6 m/S 759 mmHg 57%
    10:00 -11°C° 0 mm 6 m/S 760 mmHg 51%
    11:00 -11°C° 0 mm 6 m/S 760 mmHg 49%
    12:00 -10°C° 0 mm 6 m/S 760 mmHg 48%
    13:00 -9°C° 0 mm 6 m/S 760 mmHg 47%
    14:00 -10°C° 0 mm 6 m/S 760 mmHg 49%
    15:00 -10°C° 0 mm 6 m/S 760 mmHg 51%
    16:00 -10°C° 0 mm 6 m/S 760 mmHg 54%
    17:00 -11°C° 0 mm 6 m/S 761 mmHg 56%
    18:00 -11°C° 0 mm 6 m/S 761 mmHg 58%
    19:00 -12°C° 0 mm 6 m/S 761 mmHg 60%
    20:00 -12°C° 0 mm 5 m/S 762 mmHg 61%
    21:00 -13°C° 0 mm 5 m/S 762 mmHg 62%
    22:00 -13°C° 0 mm 5 m/S 762 mmHg 64%
    23:00 -12°C° 0 mm 4 m/S 762 mmHg 65%

    übermorgen, 25 Februar, Sonntag

    Zeit Temperatur Niederschläge Wind Luftdruck Luftfeuchtigkeit
    00:00 -14°C° 0 mm 4 m/S 762 mmHg 66%
    01:00 -14°C° 0 mm 4 m/S 762 mmHg 67%
    02:00 -14°C° 0 mm 4 m/S 762 mmHg 69%
    03:00 -14°C° 0 mm 3 m/S 762 mmHg 70%
    04:00 -14°C° 0 mm 3 m/S 762 mmHg 71%
    05:00 -14°C° 0 mm 3 m/S 762 mmHg 73%
    06:00 -14°C° 0 mm 3 m/S 762 mmHg 74%
    07:00 -14°C° 0 mm 3 m/S 762 mmHg 75%
    08:00 -14°C° 0 mm 3 m/S 762 mmHg 70%
    09:00 -13°C° 0 mm 3 m/S 762 mmHg 65%
    10:00 -12°C° 0 mm 3 m/S 762 mmHg 61%
    11:00 -12°C° 0 mm 3 m/S 762 mmHg 57%
    12:00 -10°C° 0 mm 3 m/S 762 mmHg 53%
    13:00 -10°C° 0 mm 3 m/S 762 mmHg 49%
    14:00 -10°C° 0 mm 3 m/S 761 mmHg 49%
    15:00 -10°C° 0 mm 3 m/S 761 mmHg 50%
    16:00 -10°C° 0 mm 3 m/S 761 mmHg 50%
    17:00 -10°C° 0 mm 3 m/S 761 mmHg 53%
    18:00 -10°C° 0 mm 3 m/S 761 mmHg 56%
    19:00 -12°C° 0 mm 3 m/S 761 mmHg 59%
    20:00 -12°C° 0 mm 3 m/S 761 mmHg 60%
    21:00 -12°C° 0 mm 3 m/S 761 mmHg 62%
    22:00 -13°C° 0 mm 3 m/S 761 mmHg 64%
    23:00 -13°C° 0 mm 3 m/S 761 mmHg 65%

    26 Februar, Montag

    Zeit Temperatur Niederschläge Wind Luftdruck Luftfeuchtigkeit
    00:00 -13°C° 0 mm 3 m/S 761 mmHg 67%
    01:00 -13°C° 0 mm 2 m/S 761 mmHg 68%
    02:00 -13°C° 0 mm 2 m/S 761 mmHg 69%
    03:00 -13°C° 0 mm 2 m/S 761 mmHg 71%
    04:00 -13°C° 0 mm 2 m/S 761 mmHg 72%
    05:00 -15°C° 0 mm 3 m/S 761 mmHg 72%
    06:00 -15°C° 0 mm 3 m/S 760 mmHg 73%
    07:00 -15°C° 0 mm 3 m/S 760 mmHg 74%
    08:00 -15°C° 0 mm 3 m/S 760 mmHg 69%
    09:00 -14°C° 0 mm 3 m/S 760 mmHg 65%
    10:00 -14°C° 0 mm 3 m/S 760 mmHg 61%
    11:00 -13°C° 0 mm 3 m/S 760 mmHg 58%
    12:00 -12°C° 0 mm 3 m/S 760 mmHg 54%
    13:00 -12°C° 0 mm 3 m/S 759 mmHg 51%
    14:00 -12°C° 0 mm 3 m/S 759 mmHg 51%
    15:00 -12°C° 0 mm 3 m/S 759 mmHg 51%
    16:00 -12°C° 0 mm 3 m/S 758 mmHg 51%
    17:00 -12°C° 0 mm 3 m/S 758 mmHg 54%
    18:00 -13°C° 0 mm 3 m/S 758 mmHg 57%
    19:00 -13°C° 0 mm 3 m/S 758 mmHg 59%
    20:00 -13°C° 0 mm 3 m/S 758 mmHg 61%
    21:00 -13°C° 0 mm 3 m/S 758 mmHg 63%
    22:00 -14°C° 0 mm 3 m/S 758 mmHg 65%
    23:00 -14°C° 0 mm 3 m/S 758 mmHg 67%

    27 Februar, Dienstag

    Zeit Temperatur Niederschläge Wind Luftdruck Luftfeuchtigkeit
    00:00 -14°C° 0 mm 3 m/S 757 mmHg 69%
    01:00 -15°C° 0 mm 3 m/S 757 mmHg 70%
    02:00 -15°C° 0 mm 3 m/S 757 mmHg 72%
    03:00 -15°C° 0 mm 3 m/S 757 mmHg 74%
    04:00 -15°C° 0 mm 3 m/S 757 mmHg 75%
    05:00 -15°C° 0 mm 3 m/S 756 mmHg 76%
    06:00 -15°C° 0 mm 3 m/S 756 mmHg 76%
    07:00 -16°C° 0 mm 3 m/S 756 mmHg 76%
    08:00 -15°C° 0 mm 3 m/S 756 mmHg 71%
    09:00 -15°C° 0 mm 4 m/S 756 mmHg 65%
    10:00 -15°C° 0 mm 4 m/S 756 mmHg 60%
    11:00 -14°C° 0 mm 4 m/S 756 mmHg 57%
    12:00 -12°C° 0 mm 4 m/S 756 mmHg 54%
    13:00 -12°C° 0 mm 4 m/S 756 mmHg 51%
    14:00 -12°C° 0 mm 4 m/S 756 mmHg 51%
    15:00 -12°C° 0 mm 4 m/S 755 mmHg 52%
    16:00 -13°C° 0 mm 5 m/S 755 mmHg 53%
    17:00 -13°C° 0 mm 5 m/S 755 mmHg 55%
    18:00 -13°C° 0 mm 5 m/S 756 mmHg 58%
    19:00 -14°C° 0 mm 5 m/S 756 mmHg 61%
    20:00 -14°C° 0 mm 5 m/S 756 mmHg 64%
    21:00 -14°C° 0 mm 5 m/S 756 mmHg 67%
    22:00 -14°C° 0 mm 5 m/S 756 mmHg 70%
    23:00 -15°C° 0 mm 5 m/S 756 mmHg 72%

    28 Februar, Mittwoch

    Zeit Temperatur Niederschläge Wind Luftdruck Luftfeuchtigkeit
    00:00 -15°C° 0 mm 5 m/S 756 mmHg 73%
    01:00 -15°C° 0 mm 5 m/S 756 mmHg 74%
    02:00 -17°C° 0,1 mm 5 m/S 756 mmHg 76%
    03:00 -17°C° 0,1 mm 5 m/S 755 mmHg 77%
    04:00 -17°C° 0,1 mm 5 m/S 755 mmHg 79%
    05:00 -17°C° 0,1 mm 5 m/S 755 mmHg 80%
    06:00 -17°C° 0,1 mm 5 m/S 755 mmHg 81%
    07:00 -17°C° 0,1 mm 5 m/S 755 mmHg 82%
    08:00 -15°C° 0,1 mm 5 m/S 755 mmHg 80%
    09:00 -15°C° 0,1 mm 5 m/S 755 mmHg 77%
    10:00 -14°C° 0,1 mm 5 m/S 754 mmHg 75%
    11:00 -14°C° 0,1 mm 5 m/S 754 mmHg 74%
    12:00 -14°C° 0,1 mm 5 m/S 753 mmHg 73%
    13:00 -13°C° 0,1 mm 5 m/S 753 mmHg 72%
    14:00 -13°C° 0,2 mm 5 m/S 753 mmHg 73%
    15:00 -13°C° 0,2 mm 5 m/S 752 mmHg 75%
    16:00 -14°C° 0,2 mm 4 m/S 752 mmHg 76%
    17:00 -14°C° 0,2 mm 4 m/S 752 mmHg 79%
    18:00 -14°C° 0,2 mm 4 m/S 752 mmHg 81%
    19:00 -13°C° 0,2 mm 3 m/S 752 mmHg 83%
    20:00 -13°C° 0,1 mm 3 m/S 751 mmHg 84%
    21:00 -13°C° 0,1 mm 3 m/S 751 mmHg 84%
    22:00 -14°C° 0,1 mm 3 m/S 751 mmHg 85%
    23:00 -13°C° 0,1 mm 2 m/S 751 mmHg 86%
    Mehr zeigen